User: anonymous   Login
Location: Meetinghouse Hill
(42.7686°N, 71.7752°W)
Time: 22:34:50
(UTC-04:00)
Language:

Iridium 34 - Orbit

View from above orbital plane
View from above orbital plane
View from above satellite
View from above satellite

Ground track
Ground track

The orbit data is extracted from the following two-line orbital elements,

1 24969U 97056E   17085.80195947 +.00000194 +00000-0 +62143-4 0  9995
2 24969 086.4007 353.2655 0002221 083.3300 276.8148 14.34217611020738
Epoch (UTC): 26 March 2017 19:14:49
Eccentricity: 0.0002221
inclination: 86.4007°
perigee height: 776 km
apogee height: 779 km
right ascension of ascending node: 353.2655°
argument of perigee: 83.3300°
revolutions per day: 14.34217611
mean anomaly at epoch: 276.8148°
orbit number at epoch: 2073

The dashed part of the orbit path shows where the satellite is in the earth's shadow,  

DLR